Meteo Giornale » Osservazioni meteo Indonesia » Hang Nadim
ore: 11:00 - Osservazioni Meteo Hang Nadim
Lat. 1° 7' N Lon. 104° 7' E Alt. 38 metri s.l.m.
32 °C
Poco Nuvoloso
Temp. 24 Ore
25 °C
32 °C
Sud-Est
16.7 Km/h
Dew point 26 °C
Umidità 70 %
Visibilità 7 Km
Il sole sorge alle ore 05:59
Il sole tramonta alle ore 18:07
| Data e Ora | Cielo e Fenomeni | T °C | DP °C | Um. % | Pres. hPa | Vis. km | Vento km/h | |
|---|---|---|---|---|---|---|---|---|
| Oggi h: 11:00 | Poco Nuvoloso | 32 | 26 | 70 | 1013 | 7 | SE 16.7 | |
| Oggi h: 10:30 | Nuvoloso | 32 | 26 | 70 | 1013 | 9 | SE 14.8 | |
| Oggi h: 10:00 | Molto Nuvoloso | 31 | 26 | 74 | 1014 | 7 | S/SE 16.7 | |
| Oggi h: 09:30 | Nuvoloso | 31 | 26 | 74 | 1014 | 7 | SE 18.5 | |
| Oggi h: 09:00 | Molto Nuvoloso | 30 | 26 | 79 | 1014 | 8 | SE 13 | |
| Oggi h: 08:30 | Molto Nuvoloso | 30 | 26 | 79 | 1013 | 8 | SE 11.1 | |
| Oggi h: 08:00 | Molto Nuvoloso | 30 | 26 | 79 | 1013 | 7 | E/SE 11.1 | |
| Oggi h: 07:30 | Molto Nuvoloso | 29 | 26 | 83 | 1013 | 6 | SE 9.3 | |
| Oggi h: 07:00 | Molto Nuvoloso | 28 | 26 | 88 | 1013 | 6 | N 5.5 | |
| Oggi h: 06:30 | Nuvoloso | 27 | 25 | 88 | 1013 | 10 | N 5.5 | |
| Oggi h: 06:00 | Poco Nuvoloso | 27 | 25 | 88 | 1012 | 10 | N 5.5 | |
| Oggi h: 05:30 | Poco Nuvoloso | 27 | 25 | 88 | 1012 | 10 | E 9.3 | |
| Oggi h: 05:00 | Poco Nuvoloso | 27 | 25 | 88 | 1012 | 10 | E/SE 9.3 | |
| Oggi h: 04:30 | Poco Nuvoloso | 27 | 25 | 88 | 1011 | 10 | N 5.5 | |
| Oggi h: 04:00 | Poco Nuvoloso | 27 | 25 | 88 | 1012 | 10 | E 13 | |
| Oggi h: 03:30 | Pioggia | 26 | 25 | 94 | 1011 | 9 | E/SE 7.4 | |
| Oggi h: 03:00 | Pioggia | 26 | 25 | 94 | 1011 | 10 | E/SE 7.4 | |
| Oggi h: 02:30 | Pioggia | 26 | 25 | 94 | 1011 | 9 | SE 7.4 | |
| Oggi h: 02:00 | Pioggia | 25 | 24 | 94 | 1011 | 8 | N 5.5 | |
| Oggi h: 01:30 | Pioggia | 25 | 24 | 94 | 1011 | 8 | N 5.5 | |
| Oggi h: 01:00 | Nuvoloso | 26 | 25 | 94 | 1012 | 10 | N 5.5 | |
| Oggi h: 00:30 | Poco Nuvoloso | 26 | 24 | 88 | 1012 | 10 | N 5.5 | |
| Oggi h: 00:00 | Poco Nuvoloso | 26 | 25 | 94 | 1012 | 10 | N 5.5 | |
| Ieri h: 23:30 | Poco Nuvoloso | 26 | 24 | 88 | 1013 | 10 | N 5.5 | |
| Ieri h: 23:00 | Poco Nuvoloso | 26 | 24 | 88 | 1012 | 10 | N 5.5 | |
| Ieri h: 22:30 | Poco Nuvoloso | 26 | 24 | 88 | 1012 | 10 | N 5.5 | |
| Ieri h: 22:00 | Poco Nuvoloso | 26 | 24 | 88 | 1012 | 10 | N 5.5 | |
| Ieri h: 21:30 | Poco Nuvoloso | 26 | 24 | 88 | 1012 | 10 | N 5.5 | |
| Ieri h: 21:00 | Poco Nuvoloso | 26 | 24 | 88 | 1012 | 10 | N 5.5 | |
| Ieri h: 20:30 | Poco Nuvoloso | 26 | 24 | 88 | 1012 | 10 | N 5.5 | |
| Ieri h: 20:00 | Poco Nuvoloso | 27 | 24 | 83 | 1012 | 10 | N 5.5 | |
| Ieri h: 19:30 | Poco Nuvoloso | 26 | 24 | 88 | 1011 | 10 | N 5.5 | |
| Ieri h: 19:00 | Poco Nuvoloso | 26 | 24 | 88 | 1011 | 10 | N 0 | |
| Ieri h: 18:30 | Poco Nuvoloso | 26 | 24 | 88 | 1011 | 10 | N 0 | |
| Ieri h: 18:00 | Poco Nuvoloso | 28 | 24 | 78 | 1010 | 10 | N 0 | |
| Ieri h: 17:30 | Poco Nuvoloso | 28 | 23 | 74 | 1010 | 8 | N 5.5 | |
| Ieri h: 17:00 | Poco Nuvoloso | 29 | 23 | 70 | 1010 | 10 | N 5.5 | |
| Ieri h: 16:30 | Poco Nuvoloso | 30 | 23 | 66 | 1010 | 10 | S/SE 11.1 | |
| Ieri h: 16:00 | Poco Nuvoloso | 30 | 22 | 62 | 1010 | 10 | SE 9.3 | |
| Ieri h: 15:30 | Poco Nuvoloso | 31 | 22 | 58 | 1010 | 10 | S 11.1 | |
| Ieri h: 15:00 | Poco Nuvoloso | 31 | 23 | 62 | 1011 | 10 | S 14.8 | |
| Ieri h: 14:30 | Poco Nuvoloso | 30 | 23 | 66 | 1011 | 10 | S/SO 13 | |
| Ieri h: 14:00 | Poco Nuvoloso | 29 | 23 | 70 | 1011 | 10 | S/SO 11.1 | |
| Ieri h: 13:30 | Poco Nuvoloso | 31 | 23 | 62 | 1012 | 10 | S/SO 13 | |
| Ieri h: 13:00 | Poco Nuvoloso | 28 | 22 | 69 | 1013 | 10 | SO 9.3 | |
| Ieri h: 12:30 | Sereno | 28 | 21 | 65 | 1013 | 10 | S 9.3 | |
| Ieri h: 12:00 | Nuvoloso | 27 | 23 | 78 | 1013 | 9 | S/SE 9.3 | |



